Skip Page Navigation
NASA JPL Caltech
NASA Logo - Jet Propulsion Laboratory + View the NASA Portal
+ Center for Near-Earth Object Studies
JPL Home Earth Solar System Stars & Galaxies Technology
JPL Solar System Dynamics
BODIES ORBITS EPHEMERIDES TOOLS PHYSICAL DATA DISCOVERY FAQ SITE MAP

Significant website upgrade scheduled for September 27. More details available here.

JPL Small-Body Database Browser
Search: [ help ]  
113202 Kisslaszlo (2002 RY111)
Classification: Main-belt Asteroid          SPK-ID: 2113202
Ephemeris | Orbit Diagram | Orbital Elements | Mission Design | Physical Parameters | Discovery Circumstances | Close-Approach Data ]

[ hide orbit diagram ]

For accurate long-term ephemerides, please instead use our Horizons system.This orbit viewer was implemented using two-body methods, and hence should not be used for determining accurate long-term trajectories (over several years or decades) or planetary encounter circumstances.


Orbital Elements at Epoch 2459396.5 (2021-Jul-01.0) TDB
Reference: JPL 22 (heliocentric ecliptic J2000)
 Element Value Uncertainty (1-sigma)   Units 
e .1144770639943109 4.4087e-08  
a 3.193624470775659 2.3859e-08 au
q 2.828027717860877 1.4279e-07 au
i 10.02422279793822 5.7854e-06 deg
node 18.84157864798807 2.7587e-05 deg
peri 39.19511237088305 3.873e-05 deg
M 63.62868403595755 2.502e-05 deg
tp 2459028.053327741701
(2020-Jun-27.55332774)
0.00014498 TDB
period 2084.607029402498
5.71
2.336e-05
6.396e-08
d
yr
n .1726944191026667 1.9352e-09 deg/d
Q 3.559221223690442 2.659e-08 au
  Orbit Determination Parameters
   # obs. used (total)      492  
   data-arc span      8017 days (21.95 yr)  
   first obs. used      1999-03-21  
   last obs. used      2021-03-02  
   planetary ephem.      DE441  
   SB-pert. ephem.      SB441-N16  
   condition code      0  
   norm. resid. RMS      .54982  
   source      ORB  
   producer      Otto Matic  
   solution date      2021-Apr-13 16:33:16  

Additional Information
 Earth MOID = 1.84714 au 
 Jupiter MOID = 1.90046 au 
 T_jup = 3.162 
[ show covariance matrix ]

Ephemeris | Orbit Diagram | Orbital Elements | Mission Design | Physical Parameters | Discovery Circumstances | Close-Approach Data ]

Physical Parameter Table
Parameter Symbol Value Units Sigma Reference Notes
absolute magnitude H 15.23   n/a MPCxxxxx  
diameter diameter 5.443 km 0.218 urn:nasa:pds:neowise_diameters_albedos::2.0[mainbelt] (http://adsabs.harvard.edu/abs/2011ApJ...741...68M)  
geometric albedo albedo 0.065   0.011 urn:nasa:pds:neowise_diameters_albedos::2.0[mainbelt] (http://adsabs.harvard.edu/abs/2011ApJ...741...68M)  

113202 Kisslászló           Discovered 2002 Sept. 7 by K. Sárneczky at Piszkéstető.
László L. Kiss (b. 1972) is a Hungarian astronomer, a founding member of the Szeged Asteroid Program and an old friend of the discoverer. His main field of research is the study of stellar oscillations, star clusters and exoplanets. He codiscovered 21 minor planets.
NOTE: some special characters may not display properly (any characters within {} are an attempt to place the proper accent above a character)
Reference: 20100330/MPCPages.arcLast Updated: 2010-04-05

[ show close-approach data ]
Ephemeris | Orbit Diagram | Orbital Elements | Mission Design | Physical Parameters | Discovery Circumstances | Close-Approach Data ]
ABOUT SSD CREDITS/AWARDS PRIVACY/COPYRIGHT GLOSSARY LINKS
FirstGov 2021-Sep-20 18:25 UT
(server date/time)  
NASA Home Page
Site Manager:   Ryan S. Park
Webmaster  Alan B. Chamberlin